Location: Paris
(48.6709°N, 2.3750°E)
Time: 06:03:51
(UTC+02:00)

Gurwin Techsat 1B - Pass Details

Date: 30 June 2022
Orbit: 812 x 813 km, 98.8° (Epoch: 16 August)

Event Time Altitude Azimuth Distance (km) Brightness Sun altitude
Rises 02:43:07 0° 34° (NE) 3,346 13.1 -17.3°
Reaches altitude 10° 02:48:12 10° 77° (ENE) 2,405 11.4 -17.1°
Maximum altitude 02:48:54 10° 84° (E) 2,388 11.3 -17.1°
Drops below altitude 10° 02:49:36 10° 92° (E) 2,403 11.2 -17.1°
Enters shadow 02:54:19 - 132° (SE) 3,236 11.5 -16.9°
